HYPE160 FAHM-FACT

Flight info

Callsign HYPE160
Flight time N/A
Altitude 2000
Route ARABELLAGOLFCOURSE ILSRWY1 FACT
Aircraft H160/L-SDE2FGHIJ1RWYZ/LB1

Departure

Time N/A
Airport FAHM

Arrival

Time 2026-05-04 13:18
Airport Cape Town International Airport (FACT)
Time Latitude Longitude Altitude Speed Heading
2026-05-04 13:18 -34.02376 18.71555 47 ft 0 kts 360°
2026-05-04 13:18 -34.02372 18.71554 57 ft 1 kts 359°
2026-05-04 13:19 -34.02363 18.71545 106 ft 4 kts 358°
2026-05-04 13:19 -34.02316 18.71513 188 ft 15 kts 358°
2026-05-04 13:19 -34.02106 18.71186 412 ft 78 kts 301°
2026-05-04 13:19 -34.01953 18.70393 394 ft 118 kts 272°
2026-05-04 13:20 -34.02184 18.69364 384 ft 133 kts 244°
2026-05-04 13:20 -34.03077 18.68527 739 ft 122 kts 198°
2026-05-04 13:20 -34.03652 18.68497 863 ft 124 kts 175°
2026-05-04 13:20 -34.04478 18.68857 1001 ft 129 kts 158°
2026-05-04 13:21 -34.05268 18.69321 1258 ft 124 kts 156°
2026-05-04 13:21 -34.06088 18.69494 1455 ft 123 kts 187°
2026-05-04 13:21 -34.06932 18.69333 1673 ft 123 kts 194°
2026-05-04 13:21 -34.07751 18.69046 1863 ft 123 kts 205°
2026-05-04 13:22 -34.08486 18.68532 2050 ft 122 kts 219°
2026-05-04 13:22 -34.09184 18.67933 2197 ft 125 kts 214°
2026-05-04 13:22 -34.09945 18.67458 2119 ft 122 kts 207°
2026-05-04 13:22 -34.10815 18.67096 2032 ft 144 kts 197°
2026-05-04 13:23 -34.12217 18.66807 2006 ft 163 kts 188°
2026-05-04 13:23 -34.12991 18.66802 2015 ft 165 kts 180°
2026-05-04 13:23 -34.14118 18.67058 2004 ft 167 kts 163°
2026-05-04 13:23 -34.15147 18.67703 2003 ft 166 kts 152°
2026-05-04 13:24 -34.16155 18.68347 2001 ft 166 kts 157°
2026-05-04 13:24 -34.17226 18.68879 2001 ft 166 kts 163°
2026-05-04 13:24 -34.18334 18.69282 2001 ft 166 kts 168°
2026-05-04 13:25 -34.20587 18.69358 1999 ft 166 kts 211°
2026-05-04 13:25 -34.21271 18.68292 2000 ft 164 kts 255°
2026-05-04 13:25 -34.21131 18.66967 2013 ft 159 kts 301°
2026-05-04 13:25 -34.20263 18.66176 2001 ft 161 kts 342°
2026-05-04 13:26 -34.19160 18.65981 2001 ft 161 kts 360°
2026-05-04 13:26 -34.18038 18.65996 1998 ft 162 kts
2026-05-04 13:26 -34.16930 18.65985 2000 ft 161 kts 359°
2026-05-04 13:26 -34.15820 18.65777 2002 ft 161 kts 349°
2026-05-04 13:27 -34.14727 18.65480 2000 ft 161 kts 348°
2026-05-04 13:27 -34.13631 18.65200 2000 ft 161 kts 349°
2026-05-04 13:27 -34.12529 18.64951 2000 ft 161 kts 351°
2026-05-04 13:27 -34.11427 18.64712 2000 ft 161 kts 351°
2026-05-04 13:28 -34.10325 18.64444 2000 ft 161 kts 349°
2026-05-04 13:28 -34.09232 18.64152 2000 ft 161 kts 348°
2026-05-04 13:28 -34.08141 18.63838 2000 ft 161 kts 348°
2026-05-04 13:28 -34.07052 18.63517 2000 ft 161 kts 347°
2026-05-04 13:29 -34.05968 18.63182 2001 ft 161 kts 347°
2026-05-04 13:29 -34.04883 18.62841 2000 ft 161 kts 347°
2026-05-04 13:29 -34.03799 18.62499 2002 ft 161 kts 347°
2026-05-04 13:29 -34.02790 18.62192 2032 ft 138 kts 348°
2026-05-04 13:30 -34.01937 18.61947 2017 ft 115 kts 347°
2026-05-04 13:30 -34.01215 18.61696 1999 ft 104 kts 342°
2026-05-04 13:30 -34.00568 18.61459 2008 ft 90 kts 346°
2026-05-04 13:30 -33.99979 18.61279 1993 ft 90 kts 346°
2026-05-04 13:31 -33.99353 18.60793 1967 ft 129 kts 312°
2026-05-04 13:31 -33.98966 18.59702 1977 ft 155 kts 281°
2026-05-04 13:31 -33.99057 18.58411 1990 ft 158 kts 255°
2026-05-04 13:31 -33.99626 18.57275 1998 ft 160 kts 229°
2026-05-04 13:32 -34.00552 18.56541 2000 ft 161 kts 204°
2026-05-04 13:32 -34.01658 18.56356 2001 ft 162 kts 179°
2026-05-04 13:32 -34.02735 18.56683 2002 ft 162 kts 163°
2026-05-04 13:32 -34.03788 18.57174 2001 ft 162 kts 161°
2026-05-04 13:33 -34.04831 18.57689 1999 ft 162 kts 160°
2026-05-04 13:33 -34.05875 18.58209 2000 ft 162 kts 160°
2026-05-04 13:33 -34.06918 18.58728 1998 ft 161 kts 161°
2026-05-04 13:33 -34.07957 18.59244 1927 ft 164 kts 160°
2026-05-04 13:34 -34.09004 18.59776 2105 ft 163 kts 159°
2026-05-04 13:34 -34.10054 18.60310 2298 ft 164 kts 159°
2026-05-04 13:34 -34.11103 18.60845 2479 ft 164 kts 159°
2026-05-04 13:34 -34.12149 18.61378 2570 ft 158 kts 161°
2026-05-04 13:35 -34.13166 18.61893 2134 ft 164 kts 158°
2026-05-04 13:35 -34.15223 18.63018 2122 ft 163 kts 158°
2026-05-04 13:35 -34.16252 18.63584 2110 ft 163 kts 158°
2026-05-04 13:36 -34.17267 18.64162 2123 ft 156 kts 152°
2026-05-04 13:36 -34.18002 18.64995 2104 ft 143 kts 126°
2026-05-04 13:36 -34.18317 18.66155 2103 ft 147 kts 97°
2026-05-04 13:36 -34.18147 18.67358 2101 ft 146 kts 69°
2026-05-04 13:37 -34.17532 18.68318 2101 ft 146 kts 40°
2026-05-04 13:37 -34.16619 18.68810 2100 ft 145 kts 12°
2026-05-04 13:37 -34.15629 18.68720 2100 ft 144 kts 343°
2026-05-04 13:37 -34.14826 18.68111 2100 ft 143 kts 316°
2026-05-04 13:38 -34.14182 18.67184 2101 ft 141 kts 316°
2026-05-04 13:38 -34.13379 18.66511 2100 ft 142 kts 336°
2026-05-04 13:38 -34.12514 18.65943 2103 ft 142 kts 330°
2026-05-04 13:38 -34.11617 18.65450 2097 ft 143 kts 331°
2026-05-04 13:39 -34.10773 18.64830 2092 ft 144 kts 333°
2026-05-04 13:39 -34.09781 18.64342 2086 ft 162 kts 343°
2026-05-04 13:39 -34.08694 18.63999 2235 ft 159 kts 349°
2026-05-04 13:39 -34.07718 18.63740 2054 ft 155 kts 348°
2026-05-04 13:40 -34.06669 18.63423 1844 ft 155 kts 346°
2026-05-04 13:40 -34.05641 18.63088 1631 ft 155 kts 347°
2026-05-04 13:40 -34.04657 18.62777 1430 ft 132 kts 347°
2026-05-04 13:40 -34.03853 18.62520 1253 ft 109 kts 346°
2026-05-04 13:41 -34.03153 18.62294 1103 ft 104 kts 346°
2026-05-04 13:41 -34.02455 18.62069 962 ft 104 kts 346°
2026-05-04 13:41 -34.01794 18.61858 825 ft 90 kts 347°
2026-05-04 13:42 -34.00657 18.61498 595 ft 83 kts 346°
2026-05-04 13:42 -34.00146 18.61335 490 ft 69 kts 346°
2026-05-04 13:42 -33.99708 18.61195 402 ft 64 kts 346°
2026-05-04 13:42 -33.99276 18.61056 316 ft 64 kts 346°
2026-05-04 13:43 -33.98877 18.60930 237 ft 53 kts 346°
2026-05-04 13:43 -33.98552 18.60824 221 ft 45 kts 347°
2026-05-04 13:43 -33.98272 18.60732 225 ft 38 kts 347°
2026-05-04 13:43 -33.98042 18.60660 224 ft 30 kts 346°
2026-05-04 13:44 -33.97869 18.60594 235 ft 26 kts 342°
2026-05-04 13:44 -33.97732 18.60433 232 ft 35 kts 288°
2026-05-04 13:44 -33.97751 18.60125 177 ft 32 kts 258°
2026-05-04 13:44 -33.97813 18.59927 168 ft 17 kts 261°
2026-05-04 13:45 -33.97830 18.59852 160 ft 4 kts 258°
2026-05-04 13:45 -33.97841 18.59813 160 ft 6 kts 251°
2026-05-04 13:45 -33.97855 18.59759 160 ft 8 kts 254°
2026-05-04 13:45 -33.97871 18.59695 160 ft 7 kts 248°
2026-05-04 13:46 -33.97887 18.59650 160 ft 5 kts 249°
2026-05-04 13:46 -33.97889 18.59609 160 ft 5 kts 295°
2026-05-04 13:46 -33.97866 18.59584 160 ft 5 kts 335°
2026-05-04 13:46 -33.97836 18.59571 160 ft 5 kts 342°
2026-05-04 13:47 -33.97791 18.59554 160 ft 8 kts 344°
2026-05-04 13:47 -33.97747 18.59539 160 ft 5 kts 14°
2026-05-04 13:47 -33.97733 18.59558 160 ft 1 kts 75°
2026-05-04 13:47 -33.97733 18.59559 161 ft 0 kts 75°
2026-05-04 13:48 -33.97732 18.59558 161 ft 0 kts 77°
2026-05-04 13:48 -33.97733 18.59559 160 ft 0 kts 74°